Regional Weather Roundup
Issued by NWS

Home | Current Version | Previous Version | Text Only | Print | Product List | Glossary On
Versions: 1 2 3 4 5 6 7 8 9 10 11 12 13 14 15 16 17 18 19 20 21 22 23 24 25 26 27 28 29 30 31 32 33 34 35 36 37 38 39 40 41 42 43 44 45 46 47 48 49 50
000
ASUS44 KMEG 032010
RWRTN
TENNESSEE HOURLY STATE WEATHER ROUNDUP
NATIONAL WEATHER SERVICE MEMPHIS TN
200 PM CST TUE MAR 03 2015

TNZ002-004-019-021-049-052-054-088>092-032100-
WEST TENNESSEE

CITY           SKY/WX    TMP DP  RH WIND       PRES   REMARKS
MEMPHIS INTL   LGT RAIN  57  55  93 SW10      29.97F VSB 1
NWS MEMPHIS      N/A     57 N/A N/A MISG        N/A
JACKSON        LGT RAIN  61  56  83 SW12      29.96F
DYERSBURG      CLOUDY    57  45  62 SW9       29.95F
UNION CITY     CLOUDY    55  55 100 S9        29.90F
PARIS          CLOUDY    57  55  94 SW13      29.93F
LEXINGTON      CLOUDY    57  57 100 S8        29.96F
SAVANNAH       CLOUDY    61  61 100 S7        30.00F
$$

TNZ008-025-027-028-033-062-065-066-032100-
NORTH MIDDLE TENNESSEE

CITY           SKY/WX    TMP DP  RH WIND       PRES   REMARKS
NASHVILLE      CLOUDY    62  57  83 S13G21    29.98F
CLARKSVILLE    CLOUDY    62  58  86 SW12G21   29.93F
SMYRNA         CLOUDY    62  57  83 SW9       30.00F
COOKEVILLE     CLOUDY    61  57  88 SW10      30.01F
CROSSVILLE     CLOUDY    53  52  96 S9        30.04F FOG
$$

TNZ061-075-076-078-094-096-097-032100-
SOUTH MIDDLE TENNESSEE

CITY           SKY/WX    TMP DP  RH WIND       PRES   REMARKS
FAYETTEVILLE   CLOUDY    54  52  94 S8          N/A  VSB 1/4
TULLAHOMA      CLOUDY    55  55 100 S9        30.04F
WINCHESTER     CLOUDY    55  54  94 SE8       30.06F
MCMINNVILLE    CLOUDY    61  61 100 S8        30.03F
COLUMBIA       CLOUDY   N/A N/A N/A SW10      29.99F
SHELBYVILLE    CLOUDY    61  59  94 S15       30.02F
$$

TNZ017-018-042-046-047-032100-
NORTHEAST TENNESSEE

CITY           SKY/WX    TMP DP  RH WIND       PRES   REMARKS
TRI CITIES     CLOUDY    51  43  74 N6        30.06F
ELIZABETHTON   MOCLDY    59  46  63 E6        30.03F
$$

TNZ012-013-036-069-073-074-032100-
CENTRAL EAST TENNESSEE

CITY           SKY/WX    TMP DP  RH WIND       PRES   REMARKS
KNOXVILLE      CLOUDY    49  44  83 NW9       30.07F
OAK RIDGE      CLOUDY    47  45  93 S3        30.08F FOG
GATLINBURG     CLOUDY    54  43  66 NE3       30.04F
MORRISTOWN     CLOUDY    50  43  76 N3        30.06F
$$

TNZ083-085-099-032100-
SOUTHEAST TENNESSEE

CITY           SKY/WX    TMP DP  RH WIND       PRES   REMARKS
CHATTANOOGA    LGT RAIN  53  52  96 S5        30.09F FOG
$$

SKY/WX REPORTED AS FAIR MEANS FEW OR NO CLOUDS BELOW
12 THOUSAND FEET.




USA.gov is the U.S. government's official web portal to all federal, state and local government web resources and services.